TGW675 VTCC-WSSS

Flight info

Callsign TGW675
Flight time N/A
Altitude 39000
Route PANTA2S PANTA Y7 BKK M904 PIDEL Y11 PASVA Y514 NUFFA DCT PIBAP/N0453F380 DCT PASPU DCT NYLON DCT POSUB DCT SANAT
Aircraft A20N/M-SDE2FGHIRWYZ/LB1

Departure

Time 2026-04-17 10:25
Airport Chiang Mai International Airport (VTCC)

Arrival

Time N/A
Airport Singapore Changi Airport (WSSS)
Time Latitude Longitude Altitude Speed Heading
2026-04-17 09:55 18.76604 98.96722 1030 ft 0 kts 90°
2026-04-17 10:15 18.76606 98.96714 1029 ft 0 kts 162°
2026-04-17 10:18 18.76605 98.96714 1029 ft 1 kts 162°
2026-04-17 10:19 18.76585 98.96702 1029 ft 6 kts 230°
2026-04-17 10:19 18.76575 98.96668 1029 ft 8 kts 264°
2026-04-17 10:19 18.76577 98.96597 1029 ft 11 kts 273°
2026-04-17 10:19 18.76596 98.96529 1028 ft 10 kts 316°
2026-04-17 10:20 18.76667 98.96516 1030 ft 11 kts
2026-04-17 10:20 18.76751 98.96516 1031 ft 13 kts
2026-04-17 10:20 18.76844 98.96517 1032 ft 14 kts
2026-04-17 10:20 18.76983 98.96517 1033 ft 16 kts 360°
2026-04-17 10:21 18.77060 98.96517 1034 ft 17 kts 360°
2026-04-17 10:21 18.77180 98.96518 1035 ft 18 kts
2026-04-17 10:21 18.77307 98.96520 1037 ft 19 kts
2026-04-17 10:21 18.77442 98.96519 1038 ft 20 kts 359°
2026-04-17 10:22 18.77583 98.96518 1039 ft 21 kts 359°
2026-04-17 10:22 18.77729 98.96519 1041 ft 21 kts
2026-04-17 10:22 18.77880 98.96519 1042 ft 22 kts 359°
2026-04-17 10:22 18.78031 98.96520 1044 ft 18 kts
2026-04-17 10:23 18.78145 98.96501 1045 ft 13 kts 335°
2026-04-17 10:23 18.78226 98.96449 1046 ft 14 kts 329°
2026-04-17 10:23 18.78304 98.96398 1047 ft 10 kts 327°
2026-04-17 10:23 18.78358 98.96350 1048 ft 10 kts 299°
2026-04-17 10:24 18.78329 98.96295 1048 ft 11 kts 194°
2026-04-17 10:24 18.78167 98.96294 1045 ft 53 kts 180°
2026-04-17 10:24 18.77573 98.96290 1039 ft 115 kts 180°
2026-04-17 10:24 18.76599 98.96286 1032 ft 163 kts 179°
2026-04-17 10:25 18.75421 98.96330 1474 ft 168 kts 176°
2026-04-17 10:25 18.74227 98.96362 2043 ft 173 kts 176°
2026-04-17 10:25 18.73013 98.96378 2551 ft 178 kts 181°
2026-04-17 10:25 18.71725 98.96359 2981 ft 195 kts 183°
2026-04-17 10:26 18.70307 98.96312 3369 ft 214 kts 184°
2026-04-17 10:26 18.68738 98.96273 3714 ft 237 kts 182°
2026-04-17 10:26 18.67070 98.96249 4115 ft 256 kts 182°
2026-04-17 10:26 18.65211 98.96235 4554 ft 276 kts 182°
2026-04-17 10:27 18.63289 98.96232 5356 ft 277 kts 181°
2026-04-17 10:27 18.61358 98.96231 6168 ft 278 kts 181°
2026-04-17 10:27 18.59418 98.96233 6992 ft 279 kts 181°
2026-04-17 10:27 18.57465 98.96234 7755 ft 282 kts 181°
2026-04-17 10:28 18.55497 98.96232 8542 ft 284 kts 181°
2026-04-17 10:28 18.53514 98.96229 9357 ft 286 kts 181°
2026-04-17 10:28 18.51519 98.96324 10093 ft 290 kts 169°
2026-04-17 10:28 18.49611 98.97143 10487 ft 310 kts 147°
2026-04-17 10:29 18.47996 98.98765 10687 ft 334 kts 131°
2026-04-17 10:29 18.46525 99.00751 10989 ft 351 kts 128°
2026-04-17 10:29 18.45086 99.02807 11624 ft 355 kts 128°
2026-04-17 10:29 18.43597 99.04901 12298 ft 360 kts 128°
2026-04-17 10:30 18.42062 99.07003 12953 ft 365 kts 129°
2026-04-17 10:30 18.40489 99.09117 13601 ft 370 kts 129°
2026-04-17 10:30 18.38884 99.11251 14159 ft 374 kts 129°
2026-04-17 10:30 18.37256 99.13406 14739 ft 378 kts 129°
2026-04-17 10:31 18.35610 99.15584 15341 ft 382 kts 129°
2026-04-17 10:31 18.33949 99.17782 15650 ft 385 kts 129°
2026-04-17 10:31 18.32300 99.19963 15752 ft 385 kts 129°
2026-04-17 10:31 18.30633 99.22169 15762 ft 386 kts 129°
2026-04-17 10:32 18.28965 99.24374 15760 ft 385 kts 129°
2026-04-17 10:32 18.27295 99.26580 15759 ft 386 kts 129°
2026-04-17 10:32 18.25624 99.28789 15756 ft 385 kts 129°
2026-04-17 10:32 18.23825 99.30869 15769 ft 386 kts 140°
2026-04-17 10:33 18.21596 99.32448 16201 ft 387 kts 155°
2026-04-17 10:33 18.19099 99.33465 16856 ft 386 kts 164°
2026-04-17 10:33 18.16528 99.34327 17418 ft 389 kts 164°
2026-04-17 10:33 18.13938 99.35195 17965 ft 393 kts 164°
2026-04-17 10:34 18.11319 99.36073 18451 ft 396 kts 164°
2026-04-17 10:34 18.08688 99.36953 18939 ft 399 kts 164°
2026-04-17 10:34 18.06032 99.37840 19404 ft 402 kts 164°
2026-04-17 10:34 18.03361 99.38733 19884 ft 404 kts 164°
2026-04-17 10:35 18.00668 99.39632 20359 ft 407 kts 164°
2026-04-17 10:35 17.97958 99.40537 20822 ft 410 kts 164°
2026-04-17 10:35 17.95232 99.41447 21285 ft 413 kts 164°
2026-04-17 10:35 17.92482 99.42364 21750 ft 416 kts 164°
2026-04-17 10:36 17.89713 99.43288 22188 ft 419 kts 164°
2026-04-17 10:36 17.86924 99.44218 22655 ft 422 kts 164°
2026-04-17 10:36 17.84119 99.45153 23108 ft 424 kts 164°
2026-04-17 10:36 17.81289 99.46097 23497 ft 428 kts 164°
2026-04-17 10:37 17.78443 99.47045 23855 ft 431 kts 164°
2026-04-17 10:37 17.75582 99.47997 24232 ft 433 kts 164°
2026-04-17 10:37 17.72701 99.48957 24575 ft 436 kts 164°
2026-04-17 10:37 17.69805 99.49921 24904 ft 438 kts 164°
2026-04-17 10:38 17.66895 99.50889 25262 ft 440 kts 164°
2026-04-17 10:38 17.63969 99.51862 25590 ft 443 kts 164°
2026-04-17 10:38 17.61027 99.52840 25932 ft 445 kts 164°
2026-04-17 10:38 17.58067 99.53825 26286 ft 447 kts 164°
2026-04-17 10:39 17.55091 99.54814 26586 ft 450 kts 164°
2026-04-17 10:39 17.52098 99.55808 26910 ft 452 kts 164°
2026-04-17 10:39 17.49090 99.56807 27233 ft 455 kts 164°
2026-04-17 10:39 17.46066 99.57811 27549 ft 457 kts 164°
2026-04-17 10:40 17.43029 99.58819 27840 ft 459 kts 164°
2026-04-17 10:40 17.39977 99.59832 28135 ft 461 kts 164°
2026-04-17 10:40 17.36912 99.60849 28448 ft 463 kts 164°
2026-04-17 10:40 17.33832 99.61871 28723 ft 465 kts 164°
2026-04-17 10:41 17.30782 99.62882 29013 ft 467 kts 164°
2026-04-17 10:41 17.27677 99.63911 29288 ft 469 kts 164°
2026-04-17 10:41 17.24555 99.64945 29565 ft 471 kts 164°
2026-04-17 10:41 17.21423 99.65982 29850 ft 473 kts 164°
2026-04-17 10:42 17.18320 99.67009 30095 ft 475 kts 165°
2026-04-17 10:42 17.15166 99.68053 30360 ft 476 kts 165°
2026-04-17 10:42 17.12001 99.69100 30629 ft 477 kts 165°
2026-04-17 10:42 17.08835 99.70147 30921 ft 478 kts 165°
2026-04-17 10:43 17.05665 99.71195 31271 ft 477 kts 165°
2026-04-17 10:43 17.02502 99.72241 31626 ft 476 kts 165°
2026-04-17 10:43 16.99349 99.73283 31973 ft 475 kts 165°
2026-04-17 10:43 16.96202 99.74322 32304 ft 474 kts 165°
2026-04-17 10:44 16.93060 99.75360 32634 ft 473 kts 165°
2026-04-17 10:44 16.89925 99.76394 32947 ft 472 kts 165°
2026-04-17 10:44 16.86792 99.77427 33259 ft 471 kts 165°
2026-04-17 10:44 16.83666 99.78458 33549 ft 471 kts 165°
2026-04-17 10:45 16.80548 99.79486 33821 ft 470 kts 165°
2026-04-17 10:45 16.77431 99.80513 34064 ft 469 kts 165°
2026-04-17 10:45 16.74319 99.81538 34285 ft 469 kts 165°
2026-04-17 10:45 16.71211 99.82562 34509 ft 468 kts 165°
2026-04-17 10:46 16.68106 99.83585 34724 ft 468 kts 166°
2026-04-17 10:46 16.64999 99.84607 34937 ft 467 kts 166°
2026-04-17 10:46 16.61898 99.85628 35153 ft 467 kts 166°
2026-04-17 10:46 16.58800 99.86647 35337 ft 467 kts 166°
2026-04-17 10:47 16.55704 99.87664 35530 ft 467 kts 166°
2026-04-17 10:47 16.52604 99.88684 35750 ft 466 kts 166°
2026-04-17 10:47 16.49514 99.89699 35947 ft 466 kts 166°
2026-04-17 10:47 16.46421 99.90715 36144 ft 466 kts 166°
2026-04-17 10:48 16.43332 99.91729 36338 ft 465 kts 166°
2026-04-17 10:48 16.40244 99.92742 36528 ft 465 kts 166°
2026-04-17 10:48 16.37161 99.93754 36730 ft 464 kts 166°
2026-04-17 10:48 16.34081 99.94765 36903 ft 464 kts 166°
2026-04-17 10:49 16.31093 99.95746 37075 ft 464 kts 166°
2026-04-17 10:49 16.28020 99.96762 37250 ft 463 kts 166°
2026-04-17 10:49 16.24991 99.97763 37409 ft 463 kts 166°
2026-04-17 10:49 16.21921 99.98777 37562 ft 463 kts 166°
2026-04-17 10:50 16.18851 99.99791 37706 ft 463 kts 166°
2026-04-17 10:50 16.15783 100.00803 37863 ft 462 kts 166°
2026-04-17 10:50 16.12714 100.01815 38002 ft 462 kts 166°
2026-04-17 10:50 16.09649 100.02826 38133 ft 462 kts 166°
2026-04-17 10:51 16.06588 100.03834 38270 ft 462 kts 166°
2026-04-17 10:51 16.03523 100.04844 38393 ft 462 kts 166°
2026-04-17 10:51 16.00460 100.05852 38502 ft 461 kts 166°
2026-04-17 10:51 15.97362 100.06872 38623 ft 461 kts 166°
2026-04-17 10:52 15.94350 100.07864 38713 ft 460 kts 166°
2026-04-17 10:52 15.88250 100.09870 38745 ft 459 kts 166°
2026-04-17 10:53 15.82152 100.11875 38746 ft 459 kts 166°
2026-04-17 10:53 15.76054 100.13878 38745 ft 460 kts 166°
2026-04-17 10:54 15.69959 100.15879 38749 ft 460 kts 166°
2026-04-17 10:54 15.63879 100.17873 38748 ft 460 kts 166°
2026-04-17 10:55 15.57782 100.19872 38753 ft 460 kts 166°
2026-04-17 10:55 15.51678 100.21871 38759 ft 460 kts 166°
2026-04-17 10:56 15.45581 100.23868 38756 ft 460 kts 165°
2026-04-17 10:56 15.39477 100.25865 38758 ft 460 kts 165°
2026-04-17 10:57 15.33369 100.27863 38758 ft 460 kts 165°
2026-04-17 10:57 15.27260 100.29800 38760 ft 458 kts 169°
2026-04-17 10:58 15.21041 100.31176 38764 ft 457 kts 171°
2026-04-17 10:58 15.14820 100.32525 38764 ft 456 kts 171°
2026-04-17 10:59 15.08607 100.33875 38767 ft 456 kts 171°
2026-04-17 10:59 15.02398 100.35222 38762 ft 456 kts 171°
2026-04-17 11:00 14.96197 100.36567 38766 ft 455 kts 171°
2026-04-17 11:00 14.89995 100.37911 38763 ft 455 kts 171°
2026-04-17 11:01 14.83803 100.39253 38764 ft 454 kts 171°
2026-04-17 11:01 14.77616 100.40592 38761 ft 454 kts 171°
2026-04-17 11:02 14.71436 100.41929 38763 ft 454 kts 171°
2026-04-17 11:02 14.66344 100.43030 38764 ft 453 kts 171°
2026-04-17 11:03 14.60176 100.44363 38761 ft 453 kts 171°
2026-04-17 11:03 14.54010 100.45695 38764 ft 452 kts 171°
2026-04-17 11:04 14.46854 100.47240 38765 ft 452 kts 171°
2026-04-17 11:04 14.41701 100.48352 38766 ft 452 kts 171°
2026-04-17 11:05 14.35545 100.49679 38770 ft 451 kts 171°
2026-04-17 11:05 14.29421 100.50999 38771 ft 451 kts 171°
2026-04-17 11:06 14.23284 100.52321 38770 ft 451 kts 171°
2026-04-17 11:06 14.17184 100.53634 38771 ft 451 kts 171°
2026-04-17 11:07 14.14769 100.54154 38772 ft 450 kts 171°
2026-04-17 11:07 14.09093 100.55375 38774 ft 450 kts 171°
2026-04-17 11:08 14.02956 100.56694 38772 ft 450 kts 171°
2026-04-17 11:08 13.97005 100.57973 38771 ft 450 kts 171°
2026-04-17 11:09 13.91223 100.59215 38777 ft 450 kts 171°
2026-04-17 11:09 13.85182 100.60977 38771 ft 452 kts 164°
2026-04-17 11:10 13.76195 100.63936 38798 ft 452 kts 165°
2026-04-17 11:10 13.70197 100.65903 38804 ft 452 kts 165°
2026-04-17 11:11 13.64245 100.67854 38803 ft 452 kts 165°
2026-04-17 11:11 13.58249 100.69819 38803 ft 452 kts 165°
2026-04-17 11:12 13.52253 100.71783 38800 ft 452 kts 165°
2026-04-17 11:12 13.46258 100.73745 38799 ft 452 kts 164°
2026-04-17 11:13 13.40257 100.75708 38801 ft 452 kts 164°
2026-04-17 11:13 13.34256 100.77671 38797 ft 452 kts 164°
2026-04-17 11:14 13.28271 100.79627 38800 ft 452 kts 164°
2026-04-17 11:14 13.22272 100.81587 38802 ft 453 kts 164°
2026-04-17 11:15 13.16265 100.83548 38802 ft 453 kts 164°
2026-04-17 11:15 13.10279 100.85502 38805 ft 453 kts 164°
2026-04-17 11:16 13.04372 100.87470 38812 ft 453 kts 164°
2026-04-17 11:16 12.99396 100.89137 38813 ft 453 kts 164°
2026-04-17 11:17 12.92386 100.91478 38820 ft 453 kts 164°
2026-04-17 11:17 12.91389 100.91810 38819 ft 453 kts 164°
2026-04-17 11:18 12.80906 100.95303 38826 ft 453 kts 164°
2026-04-17 11:18 12.76894 100.96639 38828 ft 453 kts 163°
2026-04-17 11:19 12.68818 100.99327 38832 ft 453 kts 164°
2026-04-17 11:19 12.62971 101.01183 38830 ft 452 kts 166°
2026-04-17 11:20 12.56906 101.02862 38832 ft 452 kts 166°
2026-04-17 11:20 12.50832 101.04560 38830 ft 452 kts 166°
2026-04-17 11:21 12.44769 101.06281 38827 ft 452 kts 166°
2026-04-17 11:21 12.38693 101.07916 38829 ft 451 kts 171°
2026-04-17 11:22 12.32489 101.08675 38828 ft 448 kts 180°
2026-04-17 11:22 12.26257 101.08649 38829 ft 448 kts 182°
2026-04-17 11:23 12.20068 101.08601 38827 ft 448 kts 182°
2026-04-17 11:23 12.13833 101.08555 38833 ft 448 kts 182°
2026-04-17 11:24 12.07600 101.08508 38832 ft 448 kts 182°
2026-04-17 11:24 12.01366 101.08460 38837 ft 448 kts 182°
2026-04-17 11:25 11.95135 101.08412 38839 ft 448 kts 182°
2026-04-17 11:25 11.88902 101.08364 38844 ft 448 kts 182°
2026-04-17 11:26 11.82668 101.08316 38844 ft 448 kts 182°
2026-04-17 11:26 11.76426 101.08268 38842 ft 448 kts 182°
2026-04-17 11:27 11.70195 101.08220 38840 ft 448 kts 182°
2026-04-17 11:27 11.64043 101.08345 38840 ft 449 kts 176°
2026-04-17 11:28 11.57900 101.09332 38841 ft 450 kts 171°
2026-04-17 11:28 11.51741 101.10485 38840 ft 450 kts 171°
2026-04-17 11:29 11.45580 101.11628 38839 ft 450 kts 172°
2026-04-17 11:29 11.39424 101.12770 38841 ft 450 kts 172°
2026-04-17 11:30 11.33266 101.13913 38841 ft 450 kts 172°
2026-04-17 11:30 11.27158 101.15046 38845 ft 450 kts 172°
2026-04-17 11:31 11.21003 101.16188 38844 ft 450 kts 172°
2026-04-17 11:31 11.14844 101.17330 38842 ft 450 kts 172°
2026-04-17 11:32 11.08715 101.18466 38825 ft 450 kts 172°
2026-04-17 11:32 11.02556 101.19609 38826 ft 450 kts 172°
2026-04-17 11:33 10.96387 101.20751 38833 ft 450 kts 172°
2026-04-17 11:33 10.90216 101.21892 38836 ft 451 kts 172°
2026-04-17 11:34 10.84032 101.23036 38835 ft 452 kts 172°
2026-04-17 11:34 10.77845 101.24180 38849 ft 452 kts 172°
2026-04-17 11:35 10.72093 101.25243 38858 ft 452 kts 172°
2026-04-17 11:35 10.65932 101.26381 38850 ft 451 kts 172°
2026-04-17 11:36 10.59756 101.27522 38848 ft 451 kts 172°
2026-04-17 11:36 10.53618 101.28655 38847 ft 451 kts 172°
2026-04-17 11:37 10.47434 101.29795 38850 ft 451 kts 172°
2026-04-17 11:37 10.41259 101.30935 38847 ft 451 kts 172°
2026-04-17 11:38 10.35084 101.32073 38840 ft 451 kts 172°
2026-04-17 11:38 10.28907 101.33217 38851 ft 451 kts 172°
2026-04-17 11:39 10.22736 101.34361 38848 ft 451 kts 172°
2026-04-17 11:39 10.16556 101.35505 38845 ft 451 kts 172°
2026-04-17 11:40 10.10406 101.36643 38848 ft 451 kts 172°
2026-04-17 11:40 10.04237 101.37784 38845 ft 451 kts 172°
2026-04-17 11:41 9.98058 101.38927 38853 ft 451 kts 172°
2026-04-17 11:41 9.91875 101.40069 38862 ft 451 kts 172°
2026-04-17 11:42 9.85705 101.41210 38850 ft 451 kts 172°
2026-04-17 11:42 9.79532 101.42350 38850 ft 450 kts 172°
2026-04-17 11:43 9.73401 101.43483 38851 ft 447 kts 172°
2026-04-17 11:43 9.67360 101.44598 38847 ft 446 kts 172°
2026-04-17 11:44 9.61254 101.45724 38843 ft 445 kts 172°
2026-04-17 11:44 9.55163 101.46848 38846 ft 444 kts 172°
2026-04-17 11:45 9.49084 101.47969 38845 ft 443 kts 172°
2026-04-17 11:45 9.43013 101.49088 38851 ft 442 kts 172°
2026-04-17 11:46 9.36976 101.50200 38840 ft 441 kts 172°
2026-04-17 11:46 9.31020 101.51297 38838 ft 441 kts 172°
2026-04-17 11:47 9.24990 101.52408 38829 ft 440 kts 172°
2026-04-17 11:47 9.18955 101.53518 38827 ft 440 kts 172°
2026-04-17 11:48 9.12900 101.54632 38852 ft 444 kts 172°
2026-04-17 11:48 9.06814 101.55752 38857 ft 444 kts 172°
2026-04-17 11:49 9.00728 101.56871 38854 ft 444 kts 172°
2026-04-17 11:49 8.94641 101.57991 38855 ft 444 kts 172°
2026-04-17 11:50 8.88598 101.59103 38854 ft 444 kts 172°
2026-04-17 11:50 8.82513 101.60223 38848 ft 444 kts 172°
2026-04-17 11:51 8.76407 101.61347 38859 ft 444 kts 172°
2026-04-17 11:51 8.70319 101.62466 38855 ft 444 kts 172°
2026-04-17 11:52 8.64313 101.63570 38854 ft 445 kts 172°
2026-04-17 11:52 8.58212 101.64691 38855 ft 445 kts 172°
2026-04-17 11:53 8.52116 101.65811 38854 ft 445 kts 172°
2026-04-17 11:53 8.51125 101.65993 38857 ft 445 kts 172°
2026-04-17 11:54 8.40667 101.67914 38853 ft 445 kts 172°
2026-04-17 11:54 8.34577 101.69032 38857 ft 445 kts 172°
2026-04-17 11:55 8.28548 101.70138 38847 ft 445 kts 172°
2026-04-17 11:55 8.22447 101.71257 38859 ft 445 kts 172°
2026-04-17 11:56 8.16356 101.72374 38859 ft 445 kts 172°
2026-04-17 11:56 8.10254 101.73492 38851 ft 445 kts 172°
2026-04-17 11:57 8.04196 101.74602 38854 ft 445 kts 172°
2026-04-17 11:57 7.98097 101.75728 38859 ft 445 kts 172°
2026-04-17 11:58 7.96074 101.76104 38851 ft 445 kts 172°
2026-04-17 11:58 7.85651 101.78037 38849 ft 444 kts 172°
2026-04-17 11:59 7.79600 101.79157 38854 ft 444 kts 172°
2026-04-17 11:59 7.77545 101.79537 38851 ft 444 kts 172°
2026-04-17 12:00 7.62218 101.82373 38860 ft 444 kts 172°
2026-04-17 12:01 7.56129 101.83499 38856 ft 444 kts 172°
2026-04-17 12:01 7.50031 101.84627 38851 ft 444 kts 171°
2026-04-17 12:02 7.43977 101.85746 38857 ft 444 kts 171°
2026-04-17 12:02 7.37878 101.86873 38854 ft 444 kts 171°
2026-04-17 12:03 7.31836 101.87989 38852 ft 444 kts 171°
2026-04-17 12:03 7.25784 101.89107 38861 ft 444 kts 171°
2026-04-17 12:04 7.19708 101.90228 38860 ft 444 kts 171°
2026-04-17 12:04 7.13634 101.91350 38864 ft 443 kts 171°
2026-04-17 12:05 7.07556 101.92471 38854 ft 442 kts 171°
2026-04-17 12:05 7.01501 101.93588 38855 ft 442 kts 171°
2026-04-17 12:06 6.95435 101.94707 38853 ft 443 kts 171°
2026-04-17 12:06 6.93421 101.95078 38856 ft 443 kts 171°
2026-04-17 12:07 6.83562 101.96896 38850 ft 443 kts 171°
2026-04-17 12:07 6.77478 101.98017 38851 ft 444 kts 171°
2026-04-17 12:08 6.71386 101.99139 38847 ft 444 kts 171°
2026-04-17 12:08 6.65326 102.00256 38851 ft 445 kts 171°
2026-04-17 12:09 6.59270 102.01371 38851 ft 445 kts 171°
2026-04-17 12:09 6.53168 102.02494 38852 ft 445 kts 171°
2026-04-17 12:10 6.47063 102.03617 38847 ft 445 kts 171°
2026-04-17 12:10 6.40959 102.04741 38847 ft 445 kts 171°
2026-04-17 12:11 6.34858 102.05863 38841 ft 446 kts 171°
2026-04-17 12:12 6.28912 102.06956 38849 ft 446 kts 171°
2026-04-17 12:12 6.19272 102.09677 38836 ft 447 kts 163°
2026-04-17 12:13 6.14350 102.11298 38836 ft 447 kts 163°
2026-04-17 12:13 6.08420 102.13246 38837 ft 448 kts 163°
2026-04-17 12:14 6.01525 102.15512 38843 ft 448 kts 163°
2026-04-17 12:14 5.96592 102.17134 38843 ft 448 kts 163°
2026-04-17 12:15 5.90660 102.19083 38861 ft 449 kts 163°
2026-04-17 12:15 5.85707 102.20711 38867 ft 449 kts 163°
2026-04-17 12:16 5.72816 102.25062 38878 ft 450 kts 159°
2026-04-17 12:17 5.67005 102.27398 38886 ft 450 kts 159°
2026-04-17 12:17 5.61211 102.29714 38875 ft 448 kts 159°
2026-04-17 12:18 5.55425 102.32027 38874 ft 448 kts 159°
2026-04-17 12:18 5.49636 102.34340 38871 ft 448 kts 159°
2026-04-17 12:19 5.43846 102.36653 38873 ft 447 kts 159°
2026-04-17 12:19 5.38103 102.38948 38874 ft 447 kts 159°
2026-04-17 12:20 5.32317 102.41259 38871 ft 447 kts 159°
2026-04-17 12:20 5.26551 102.43562 38874 ft 447 kts 159°
2026-04-17 12:21 5.20773 102.45869 38872 ft 447 kts 159°
2026-04-17 12:21 5.14998 102.48175 38872 ft 446 kts 159°
2026-04-17 12:22 5.09229 102.50477 38867 ft 446 kts 159°
2026-04-17 12:22 5.03457 102.52780 38869 ft 446 kts 159°
2026-04-17 12:23 4.97726 102.55066 38867 ft 446 kts 159°
2026-04-17 12:23 4.91961 102.57366 38859 ft 446 kts 159°
2026-04-17 12:24 4.89076 102.58516 38864 ft 446 kts 159°
2026-04-17 12:24 4.80584 102.61903 38859 ft 446 kts 159°
2026-04-17 12:25 4.74816 102.64202 38858 ft 446 kts 159°
2026-04-17 12:25 4.69049 102.66501 38861 ft 447 kts 159°
2026-04-17 12:26 4.63270 102.68804 38863 ft 447 kts 159°
2026-04-17 12:26 4.57491 102.71106 38865 ft 447 kts 159°
2026-04-17 12:27 4.51711 102.73409 38864 ft 447 kts 159°
2026-04-17 12:27 4.45924 102.75714 38863 ft 448 kts 159°
2026-04-17 12:28 4.40132 102.78020 38863 ft 448 kts 159°
2026-04-17 12:28 4.34373 102.80313 38864 ft 448 kts 159°
2026-04-17 12:29 4.28576 102.82621 38859 ft 448 kts 159°
2026-04-17 12:29 4.22776 102.84930 38856 ft 449 kts 159°
2026-04-17 12:30 4.16970 102.87240 38854 ft 449 kts 159°
2026-04-17 12:30 4.11168 102.89549 38847 ft 449 kts 159°
2026-04-17 12:31 4.05364 102.91858 38836 ft 449 kts 159°
2026-04-17 12:31 3.99567 102.94164 38834 ft 449 kts 159°
2026-04-17 12:32 3.93758 102.96474 38831 ft 449 kts 159°
2026-04-17 12:32 3.87957 102.98781 38829 ft 449 kts 159°
2026-04-17 12:33 3.82152 103.01089 38826 ft 449 kts 159°
2026-04-17 12:33 3.76348 103.03397 38825 ft 449 kts 159°
2026-04-17 12:34 3.70547 103.05703 38824 ft 449 kts 159°
2026-04-17 12:34 3.64736 103.08013 38823 ft 449 kts 159°
2026-04-17 12:35 3.58932 103.10319 38822 ft 449 kts 159°
2026-04-17 12:35 3.53123 103.12628 38825 ft 449 kts 159°
2026-04-17 12:37 3.30158 103.22356 38838 ft 450 kts 147°
2026-04-17 12:38 3.25262 103.26263 38840 ft 451 kts 136°
2026-04-17 12:38 3.20947 103.30830 38842 ft 452 kts 134°
2026-04-17 12:39 3.16632 103.35400 38852 ft 452 kts 134°
2026-04-17 12:39 3.14471 103.37687 38734 ft 452 kts 134°
2026-04-17 12:39 3.12311 103.39974 38488 ft 452 kts 134°
2026-04-17 12:39 3.10150 103.42264 37853 ft 455 kts 134°
2026-04-17 12:40 3.07965 103.44579 37009 ft 459 kts 134°
2026-04-17 12:40 3.05767 103.46909 36388 ft 458 kts 134°
2026-04-17 12:40 3.03581 103.49224 35624 ft 460 kts 134°
2026-04-17 12:40 3.01382 103.51554 34888 ft 461 kts 134°
2026-04-17 12:41 2.99177 103.53889 34151 ft 463 kts 133°
2026-04-17 12:41 2.96957 103.56240 33359 ft 465 kts 133°
2026-04-17 12:41 2.94740 103.58589 32580 ft 465 kts 133°
2026-04-17 12:41 2.92519 103.60940 31781 ft 464 kts 133°
2026-04-17 12:42 2.90304 103.63287 30979 ft 460 kts 133°
2026-04-17 12:42 2.88195 103.65675 30163 ft 457 kts 129°
2026-04-17 12:42 2.86181 103.68091 29555 ft 448 kts 129°
2026-04-17 12:42 2.84185 103.70478 29135 ft 448 kts 129°
2026-04-17 12:43 2.82186 103.72865 28584 ft 445 kts 129°
2026-04-17 12:43 2.80209 103.75224 28027 ft 440 kts 129°
2026-04-17 12:43 2.78276 103.77531 27484 ft 437 kts 129°
2026-04-17 12:43 2.76304 103.79882 26921 ft 433 kts 129°
2026-04-17 12:44 2.74381 103.82177 26374 ft 429 kts 129°
2026-04-17 12:44 2.72471 103.84455 25778 ft 426 kts 129°
2026-04-17 12:44 2.70603 103.86684 25243 ft 423 kts 129°
2026-04-17 12:44 2.68722 103.88928 24716 ft 419 kts 129°
2026-04-17 12:45 2.66855 103.91155 24179 ft 416 kts 129°
2026-04-17 12:45 2.64999 103.93369 23643 ft 414 kts 129°
2026-04-17 12:45 2.63152 103.95572 23070 ft 411 kts 130°
2026-04-17 12:45 2.61338 103.97736 22531 ft 399 kts 130°
2026-04-17 12:46 2.59597 103.99814 22269 ft 380 kts 130°
2026-04-17 12:46 2.58468 104.01160 22141 ft 367 kts 130°